Pittsburg, KS

4:05 AM CDT on June 28, 2017 (GMT -0500)
Atkinson Municipal

Weather History for KPTS - October, 2011

Change the Weather History Date:

Sunday, October 9, 2011

  Actual Average (KJLN) Record (KJLN)
Temperature  
Mean Temperature 70 °F -  
Max Temperature 79 °F 70 °F 92 °F (1963)
Min Temperature 62 °F 48 °F 24 °F (2000)
Cooling Degree Days 6    
Growing Degree Days 20 (Base 50)    
Moisture  
Dew Point 52 °F    
Average Humidity 53    
Maximum Humidity 70    
Minimum Humidity 34    
Precipitation  
Precipitation 0.00 in - - ()
Sea Level Pressure  
Sea Level Pressure 30.10 in    
Wind  
Wind Speed 10 mph (SE)    
Max Wind Speed 16 mph    
Max Gust Speed 22 mph    
Visibility 10 miles    
Events      
Averages and records for this station are not official NWS values.
T = Trace of Precipitation, MM = Missing Value Source: NWS Daily Summary

Daily Weather History Graph

Daily Weather History Graph

Search for Another Location

Airport or City:

Trip Planner

Search our weather history database for the weather conditions in past years. The results will help you decide how hot, cold, wet, or windy it might be!

Date:

Astronomy

Oct. 09, 2011 Rise Set
Actual Time 7:21 AM CDT 6:50 PM CDT
Civil Twilight 6:55 AM CDT 7:16 PM CDT
Nautical Twilight 6:24 AM CDT 7:46 PM CDT
Astronomical Twilight 5:54 AM CDT 8:17 PM CDT
Moon 5:26 PM CDT (10/9) 5:08 AM CDT (10/9)
Length of Visible Light 12h 21m
Length of Day
11h 29m
Waxing Gibbous, 95% of the Moon is Illuminated
Oct 9
Waxing Gibbous
Oct 11
Full
Oct 19
Last Quarter
Oct 26
New
Nov 2
First Quarter

Hourly Weather History & Observations

Time (CDT) Temp. Dew Point Humidity Pressure Visibility Wind Dir Wind Speed Gust Speed Precip Events Conditions
12:15 AM 67.1 °F 52.2 °F 59% 30.11 in 10.0 mi SE 8.1 mph - N/A   Clear
12:35 AM 67.1 °F 52.7 °F 60% 30.11 in 10.0 mi SE 6.9 mph - N/A   Clear
12:55 AM 66.4 °F 52.5 °F 61% 30.11 in 10.0 mi SE 8.1 mph - N/A   Clear
1:15 AM 64.8 °F 51.6 °F 62% 30.11 in 10.0 mi SE 6.9 mph - N/A   Clear
1:35 AM 64.4 °F 51.8 °F 64% 30.11 in 10.0 mi SE 6.9 mph - N/A   Clear
1:55 AM 64.4 °F 52.2 °F 64% 30.11 in 10.0 mi SE 5.8 mph - N/A   Clear
2:35 AM 66.6 °F 53.6 °F 63% 30.12 in 10.0 mi SE 9.2 mph - N/A   Clear
2:55 AM 65.1 °F 52.3 °F 63% 30.12 in 10.0 mi SE 8.1 mph - N/A   Clear
3:15 AM 64.4 °F 52.2 °F 64% 30.11 in 10.0 mi SE 9.2 mph - N/A   Clear
3:35 AM 64.4 °F 52.3 °F 65% 30.11 in 10.0 mi SE 8.1 mph - N/A   Clear
3:55 AM 64.4 °F 52.3 °F 65% 30.11 in 10.0 mi SE 9.2 mph - N/A   Scattered Clouds
4:15 AM 64.4 °F 52.2 °F 64% 30.11 in 10.0 mi SE 9.2 mph - N/A   Scattered Clouds
4:35 AM 64.4 °F 52.0 °F 64% 30.12 in 10.0 mi SSE 10.4 mph - N/A   Scattered Clouds
4:55 AM 64.4 °F 52.0 °F 64% 30.12 in 10.0 mi SSE 9.2 mph - N/A   Scattered Clouds
5:15 AM 64.4 °F 52.2 °F 64% 30.12 in 10.0 mi SE 11.5 mph 16.1 mph N/A   Scattered Clouds
5:35 AM 64.4 °F 52.3 °F 65% 30.13 in 10.0 mi SE 10.4 mph - N/A   Clear
5:55 AM 64.4 °F 52.3 °F 65% 30.13 in 10.0 mi SE 10.4 mph - N/A   Scattered Clouds
6:35 AM 64.4 °F 52.7 °F 66% 30.14 in 10.0 mi SSE 8.1 mph 16.1 mph N/A   Scattered Clouds
6:55 AM 64.4 °F 53.1 °F 67% 30.14 in 10.0 mi SE 10.4 mph - N/A   Scattered Clouds
7:15 AM 63.7 °F 52.7 °F 67% 30.14 in 10.0 mi SE 8.1 mph - N/A   Scattered Clouds
7:35 AM 62.8 °F 52.3 °F 69% 30.14 in 10.0 mi SE 9.2 mph - N/A   Scattered Clouds
7:55 AM 62.6 °F 52.7 °F 70% 30.14 in 10.0 mi SE 8.1 mph - N/A   Clear
8:15 AM 62.6 °F 52.7 °F 70% 30.14 in 10.0 mi SE 8.1 mph - N/A   Clear
8:35 AM 63.1 °F 53.1 °F 70% 30.15 in 10.0 mi SE 6.9 mph - N/A   Clear
8:55 AM 64.2 °F 53.4 °F 68% 30.15 in 10.0 mi SE 6.9 mph - N/A   Clear
9:15 AM 66.9 °F 54.9 °F 65% 30.15 in 10.0 mi SSE 8.1 mph - N/A   Clear
9:35 AM 69.4 °F 55.8 °F 62% 30.16 in 10.0 mi SSE 11.5 mph - N/A   Clear
9:55 AM 69.6 °F 54.3 °F 58% 30.16 in 10.0 mi South 13.8 mph - N/A   Clear
10:15 AM 72.5 °F 55.2 °F 54% 30.16 in 10.0 mi SSE 11.5 mph 17.3 mph N/A   Clear
10:35 AM 74.5 °F 55.8 °F 52% 30.15 in 10.0 mi SSE 13.8 mph 20.7 mph N/A   Clear
10:55 AM 74.5 °F 54.7 °F 50% 30.15 in 10.0 mi South 11.5 mph 20.7 mph N/A   Clear
11:35 AM 75.2 °F 54.7 °F 49% 30.14 in 10.0 mi South 13.8 mph 20.7 mph N/A   Clear
11:55 AM 77.0 °F 55.0 °F 47% - 10.0 mi SSE 15.0 mph 19.6 mph N/A   Clear
12:15 PM 77.0 °F 54.3 °F 45% 30.12 in 10.0 mi South 13.8 mph 20.7 mph N/A   Clear
12:35 PM 78.4 °F 54.1 °F 43% 30.12 in 10.0 mi SE 16.1 mph 19.6 mph N/A   Clear
12:55 PM 79.7 °F 53.6 °F 40% 30.11 in 10.0 mi SSE 16.1 mph 20.7 mph N/A   Scattered Clouds
1:15 PM 79.7 °F 52.5 °F 39% 30.10 in 10.0 mi South 12.7 mph 19.6 mph N/A   Scattered Clouds
1:35 PM 79.7 °F 51.6 °F 38% 30.09 in 10.0 mi South 15.0 mph 20.7 mph N/A   Scattered Clouds
1:55 PM 79.7 °F 50.0 °F 35% 30.08 in 10.0 mi SSE 13.8 mph 19.6 mph N/A   Scattered Clouds
2:15 PM 78.4 °F 49.8 °F 37% 30.07 in 10.0 mi SSE 13.8 mph 20.7 mph N/A   Clear
2:35 PM 79.7 °F 49.3 °F 34% 30.06 in 10.0 mi SE 11.5 mph - N/A   Scattered Clouds
3:15 PM 79.3 °F 50.7 °F 37% 30.06 in 10.0 mi SSE 12.7 mph 19.6 mph N/A   Scattered Clouds
3:35 PM 79.2 °F 50.4 °F 36% 30.05 in 10.0 mi SSE 16.1 mph - N/A   Clear
3:55 PM 77.5 °F 49.6 °F 37% 30.05 in 10.0 mi SSE 13.8 mph 19.6 mph N/A   Clear
4:15 PM 77.7 °F 50.2 °F 38% 30.05 in 10.0 mi SE 15.0 mph - N/A   Clear
4:35 PM 78.1 °F 50.4 °F 38% 30.04 in 10.0 mi SSE 15.0 mph 20.7 mph N/A   Clear
4:55 PM 77.0 °F 50.2 °F 39% 30.04 in 10.0 mi SE 15.0 mph 19.6 mph N/A   Clear
5:15 PM 77.0 °F 50.5 °F 39% 30.04 in 10.0 mi SE 11.5 mph 21.9 mph N/A   Clear
5:35 PM 76.5 °F 50.9 °F 41% 30.04 in 10.0 mi SE 11.5 mph - N/A   Clear
5:55 PM 75.9 °F 50.5 °F 41% 30.04 in 10.0 mi SE 9.2 mph - N/A   Clear
6:15 PM 75.2 °F 50.0 °F 41% 30.05 in 10.0 mi SSE 9.2 mph - N/A   Clear
6:35 PM 74.5 °F 50.4 °F 43% 30.05 in 10.0 mi SE 10.4 mph - N/A   Clear
6:55 PM 74.5 °F 51.3 °F 44% 30.05 in 10.0 mi SE 5.8 mph - N/A   Clear
7:35 PM 72.0 °F 50.7 °F 47% 30.05 in 10.0 mi SE 8.1 mph - N/A   Clear
7:55 PM 71.8 °F 50.5 °F 47% 30.05 in 10.0 mi ESE 6.9 mph - N/A   Clear
8:15 PM 69.8 °F 49.8 °F 49% 30.05 in 10.0 mi ESE 8.1 mph - N/A   Clear
8:35 PM 69.4 °F 50.7 °F 51% 30.06 in 10.0 mi ESE 6.9 mph - N/A   Clear
8:55 PM 69.4 °F 51.3 °F 52% 30.06 in 10.0 mi SE 8.1 mph - N/A   Clear
9:15 PM 69.4 °F 52.0 °F 54% 30.05 in 10.0 mi ESE 6.9 mph - N/A   Clear
9:35 PM 69.4 °F 52.9 °F 56% 30.06 in 10.0 mi ESE 8.1 mph - N/A   Clear
9:55 PM 68.5 °F 52.2 °F 56% 30.06 in 10.0 mi SE 8.1 mph - N/A   Clear
10:15 PM 67.1 °F 50.5 °F 55% 30.05 in 10.0 mi SE 9.2 mph - N/A   Clear
10:35 PM 67.1 °F 50.7 °F 56% 30.06 in 10.0 mi SE 8.1 mph - N/A   Clear
10:55 PM 66.6 °F 50.5 °F 56% 30.06 in 10.0 mi SE 8.1 mph - N/A   Clear
11:15 PM 66.6 °F 50.7 °F 57% 30.06 in 10.0 mi SE 8.1 mph - N/A   Clear
11:35 PM 66.7 °F 50.9 °F 57% 30.05 in 10.0 mi SE 9.2 mph - N/A   Clear
11:55 PM 67.1 °F 50.9 °F 56% 30.05 in 10.0 mi SE 8.1 mph - N/A   Clear